Probability
0 0 0 0 0 0 0 0 0 0 0 0 0 0 0 0 0 0 0 0 0 0 0 0 0 0 0 0 0 0 0 0 0 0 0 0 0 0 0 0 0 0 0
0 0 0 0 0 0 0 0 0 0 0 0 0 0 0 0 0 0 0 0 0 0 0 0 0 0 0 0 0 0 0 0 0 0 0 0 0 0 0 0 0 0 0
0 0 0 0 0 0 0 0 0 0 0 0 0 0 0 0 0 0 0 0 0 0 0 0 0 0 0 0 0 0 0 0 0 0 0 0 0 0 0 0 0 0 0
0 0 0 0 0 0 0 0 0 0 0 0 0 0 0 0 0 0 0 0 0 0 0 0 0 0 0 0 0 0 0 0 0 0 0 0 0 0 0 0 0 0 0
0 0 0 0 0 0 0 0 0 0 0 0 0 0 0 0 0 0 0 0 0 0 0 0 0 0 0 0 0 0 0 0 0 0 0 0 0 0 0 0 0 0 0
0 0 0 0 0 0 0 0 0 0 0 0 0 0 0 0 0 0 0 0 0 0 0 0 0 0 0 0 0 0 0 0 0 0 0 0 0 0 0 0 0 0 0
0 0 0 0 0 0 0 0 0 0 0 0 0 0 0 0 0 0 0 0 0 0 0 0 0 0 0 0 0 0 0 0 0 0 0 0 0 0 0 0 0 0 0
0 0 0 0 0 0 0 0 0 0 0 0 0 0 0 0 0 0 0 0 0 0 0 0 0 0 0 0 0 0 0 0 0 0 0 0 0 0 0 0 0 0 0
0 0 0 0 0 0 0 0 0 0 0 0 0 0 0 0 0 0 0 0 0 0 0 0 0 0 0 0 0 0 0 0 0 0 0 0 0 0 0 0 0 0 0
0 0 0 0 0 0 0 0 0 0 0 0 0 0 0 0 0 0 0 0 0 0 0 0 0 0 0 0 0 0 0 0 0 0 0 0 0 0 0 0 0 0 0
0 0 0 0 0 0 0 0 0 0 0 0 0 0 0 0 0 0 0 0 0 0 0 0 0 0 0 0 0 0 0 0 0 0 0 0 0 0 0 0 0 0 0
0 0 0 0 0 0 0 0 0 0 0 0 0 0 0 0 0 0 0 0 0 0 0 0 0 0 0 0 0 0 0 0 0 0 0 0 0 0 0 0 0 0 0
0 0 0 0 0 0 0 0 0 0 0 0 0 0 0 0 0 0 0 0 0 0 0 0 0 0 0 0 0 0 0 0 0 0 0 0 0 0 0 0 0 0 0
0 0 0 0 0 0 0 0 0 0 0 0 0 0 0 0 0 0 0 0 0 0 0 0 0 0 0 0 0 0 0 0 0 0 0 0 0 0 0 0 0 0 0
0 0 0 0 0 0 0 0 0 0 0 0 0 0 0 0 0 0 0 0 0 0 0 0 0 0 0 0 0 0 0 0 0 0 0 0 0 0 0 0 0 0 0
0 0 0 0 0 0 0 0 0 0 0 0 0 0 0 0 0 0 0 0 0 0 0 0 0 0 0 0 0 0 0 0 0 0 0 0 0 0 0 0 0 0 0
0 0 0 0 0 0 0 0 0 0 0 0 0 0 0 0 0 0 0 0 0 0 0 0 0 0 0 0 0 0 0 0 0 0 0 0 0 0 0 0 0 0 0
0 0 0 0 0 0 0 0 0 0 0 0 0 0 0 0 0 0 0 0 0 0 0 0 0 0 0 0 0 0 0 0 0 0 0 0 0 0 0 0 0 0 0
0 0 0 0 0 0 0 0 0 0 0 0 0 0 0 0 0 0 0 0 0 0 0 0 0 0 0 0 0 0 0 0 0 0 0 0 0 0 0 0 0 0 0
0 0 0 0 0 0 0 0 0 0 0 0 0 0 0 0 0 0 0 0 0 0 0 0 0 0 0 0 0 0 0 0 0 0 0 0 0 0 0 0 0 0 0
0 0 0 0 0 0 0 0 0 0 0 0 0 0 0 0 0 0 0 0 0 0 0 0 0 0 0 0 0 0 0 0 0 0 0 0 0 0 0 0 0 0 0
0 0 0 0 0 0 0 0 0 0 0 0 0 0 0 0 0 0 0 0 0 0 0 0 0 0 0 0 0 0 0 0 0 0 0 0 0 0 0 0 0 0 0
0 0 0 0 0 0 0 0 0 0 0 0 0 0 0 0 0 0 0 0 0 0 0 0 0 0 0 0 0 0 0 0 0 0 0 0 0 0 0 0 0 0 0
0 0 0 0 0 0 0 0 0 0 0 0 0 0 0 0 0 0 0 0 0 0 0 0 0 0 0 0 0 0 0 0 0 0 0 0 0 0 0 0 0 0 0
0 0 0 0 0 0 0 0 0 0 0 0 0 0 0 0 0 0 0 0 0 0 0 0 0 0 0 0 0 0 0 0 0 0 0 0 0 0 0 0 0 0 0
0 0 0 0 0 0 0 0 0 0 0 0 0 0 0 0 0 0 0 0 0 0 0 0 0 0 0 0 0 0 0 0 0 0 0 0 0 0 0 0 0 0 0
Height
5725 5727 5729 5732 5734 5736 5738 5740 5742 5744 5746 5747 5749 5751 5752 5754 5757 5759 5760 5763 5765 5768 5771 5773 5775 5777 5779 5780 5781 5782 5783 5783 5783 5784 5784 5783 5782 5782 5781 5781 5781 5781 5781
5722 5724 5726 5728 5730 5732 5734 5735 5737 5739 5741 5742 5743 5744 5746 5748 5750 5751 5753 5755 5757 5760 5763 5765 5768 5770 5772 5773 5774 5775 5776 5776 5776 5776 5776 5776 5776 5775 5774 5774 5774 5773 5774
5718 5720 5722 5724 5726 5728 5729 5731 5732 5734 5735 5735 5736 5737 5740 5741 5744 5745 5746 5747 5749 5752 5755 5758 5760 5762 5764 5765 5766 5768 5768 5769 5769 5769 5769 5769 5769 5768 5768 5767 5767 5766 5766
5714 5716 5718 5720 5721 5723 5724 5726 5726 5728 5728 5729 5730 5730 5733 5734 5736 5737 5739 5740 5741 5744 5747 5749 5752 5755 5757 5758 5759 5760 5761 5761 5762 5762 5762 5762 5762 5762 5762 5761 5760 5760 5760
5710 5712 5713 5715 5716 5717 5719 5720 5720 5721 5722 5723 5724 5724 5725 5727 5729 5731 5731 5733 5735 5737 5739 5742 5745 5747 5749 5750 5751 5752 5753 5754 5754 5754 5754 5754 5754 5754 5755 5755 5754 5753 5753
5705 5706 5708 5709 5710 5711 5712 5713 5714 5715 5715 5716 5716 5717 5718 5720 5722 5723 5724 5725 5727 5730 5732 5734 5737 5739 5741 5742 5743 5744 5745 5746 5746 5746 5746 5746 5747 5747 5747 5747 5747 5746 5746
5699 5700 5702 5703 5704 5705 5705 5706 5707 5707 5707 5708 5709 5710 5710 5712 5714 5715 5717 5718 5720 5722 5724 5726 5729 5731 5732 5733 5735 5735 5736 5737 5738 5738 5738 5738 5738 5738 5738 5739 5739 5739 5739
5692 5694 5695 5696 5697 5697 5698 5698 5699 5699 5699 5700 5700 5702 5703 5704 5706 5708 5709 5710 5712 5714 5716 5718 5720 5722 5723 5724 5726 5726 5727 5728 5729 5729 5729 5729 5730 5730 5730 5730 5730 5730 5730
5685 5686 5687 5688 5689 5689 5689 5690 5690 5690 5691 5691 5692 5693 5695 5696 5698 5699 5700 5702 5704 5706 5707 5709 5711 5712 5714 5715 5716 5716 5717 5718 5719 5720 5720 5720 5720 5721 5721 5720 5720 5721 5721
5677 5678 5679 5679 5680 5681 5681 5681 5681 5681 5682 5682 5683 5685 5686 5688 5689 5690 5692 5693 5695 5697 5698 5700 5701 5702 5704 5705 5706 5706 5707 5708 5709 5710 5710 5710 5711 5711 5710 5710 5710 5710 5710
5669 5669 5670 5670 5671 5672 5672 5672 5673 5673 5673 5674 5674 5676 5677 5678 5680 5681 5682 5684 5685 5687 5688 5689 5691 5692 5693 5694 5695 5696 5697 5698 5698 5699 5700 5700 5700 5700 5700 5700 5700 5699 5699
5660 5660 5660 5661 5661 5662 5662 5662 5663 5663 5664 5664 5665 5666 5667 5669 5670 5671 5672 5673 5674 5676 5677 5678 5680 5681 5682 5683 5684 5685 5686 5687 5687 5688 5688 5689 5689 5689 5689 5689 5688 5688 5687
5650 5650 5650 5650 5651 5651 5651 5652 5652 5653 5654 5654 5655 5656 5657 5658 5659 5660 5661 5662 5663 5665 5666 5667 5668 5669 5670 5671 5672 5673 5674 5674 5675 5676 5676 5676 5676 5677 5676 5676 5676 5676 5675
5639 5639 5639 5640 5640 5640 5640 5641 5642 5642 5643 5644 5644 5645 5646 5647 5648 5649 5650 5651 5652 5653 5654 5655 5656 5657 5658 5658 5659 5660 5661 5662 5662 5663 5663 5663 5663 5664 5663 5664 5663 5663 5663
5628 5628 5628 5628 5628 5628 5628 5629 5630 5630 5631 5632 5633 5633 5634 5635 5636 5637 5638 5639 5640 5641 5642 5642 5643 5644 5645 5645 5646 5647 5648 5648 5649 5649 5650 5650 5650 5650 5650 5650 5650 5650 5649
5616 5616 5616 5616 5616 5616 5616 5616 5617 5618 5618 5619 5620 5621 5622 5622 5623 5624 5625 5626 5627 5628 5629 5630 5630 5631 5632 5632 5633 5633 5634 5635 5635 5636 5636 5636 5636 5636 5636 5636 5636 5636 5635
5604 5603 5603 5603 5603 5603 5603 5603 5604 5604 5605 5606 5607 5608 5609 5609 5610 5611 5612 5613 5614 5614 5615 5616 5617 5618 5618 5618 5619 5619 5619 5620 5621 5621 5622 5622 5622 5622 5621 5621 5621 5621 5620
5590 5590 5590 5590 5590 5590 5589 5590 5590 5591 5591 5592 5593 5594 5595 5596 5596 5597 5598 5599 5600 5601 5602 5602 5603 5604 5604 5604 5604 5604 5605 5605 5606 5606 5607 5607 5607 5606 5606 5606 5606 5606 5605
5576 5576 5576 5576 5576 5576 5576 5575 5576 5577 5577 5578 5579 5580 5580 5581 5582 5583 5584 5585 5586 5587 5587 5588 5588 5589 5589 5589 5589 5589 5589 5590 5590 5591 5591 5591 5591 5591 5590 5590 5590 5590 5589
5563 5563 5562 5562 5562 5562 5562 5561 5562 5562 5563 5564 5564 5565 5566 5567 5568 5569 5570 5571 5571 5572 5572 5573 5573 5573 5574 5574 5573 5573 5573 5574 5575 5575 5575 5575 5574 5574 5573 5573 5573 5574 5573
5549 5549 5548 5548 5548 5548 5547 5547 5548 5548 5549 5549 5550 5550 5551 5552 5552 5553 5554 5555 5556 5556 5557 5557 5558 5558 5558 5558 5557 5557 5557 5557 5558 5558 5559 5558 5558 5557 5557 5556 5556 5556 5556
5535 5534 5534 5534 5534 5533 5533 5533 5534 5534 5534 5534 5535 5535 5536 5536 5537 5538 5538 5539 5539 5540 5540 5540 5541 5541 5541 5541 5540 5540 5540 5539 5540 5541 5541 5541 5541 5540 5540 5539 5539 5539 5539
5521 5520 5520 5520 5519 5519 5518 5518 5519 5519 5519 5520 5520 5520 5521 5521 5521 5521 5522 5522 5522 5522 5522 5523 5523 5524 5524 5523 5523 5523 5523 5522 5522 5523 5523 5523 5523 5523 5523 5522 5522 5521 5521
5506 5506 5505 5505 5505 5504 5504 5504 5504 5504 5504 5505 5505 5505 5505 5505 5505 5505 5505 5505 5505 5505 5505 5505 5505 5506 5506 5506 5506 5505 5505 5505 5505 5505 5505 5505 5505 5505 5505 5505 5505 5504 5505
5491 5491 5490 5490 5490 5489 5489 5489 5489 5489 5489 5490 5490 5490 5489 5489 5489 5489 5488 5488 5488 5487 5487 5487 5487 5488 5489 5489 5488 5488 5488 5488 5488 5488 5488 5489 5489 5489 5489 5489 5489 5488 5489
5477 5476 5475 5475 5475 5475 5475 5474 5474 5474 5474 5475 5475 5474 5474 5473 5473 5472 5473 5472 5472 5471 5471 5470 5470 5471 5471 5471 5471 5471 5471 5470 5470 5471 5472 5473 5473 5473 5473 5473 5473 5473 5473
Wind_Speed
21 22 24 25 27 28 28 27 28 29 29 31 31 30 31 32 33 34 33 35 35 35 34 33 32 31 30 31 31 30 31 31 32 32 32 33 33 33 33 32 32 32 31
21 22 24 25 27 28 28 28 29 30 30 30 31 31 32 34 36 35 35 36 36 36 36 35 33 33 32 32 32 32 32 32 31 31 31 31 31 32 32 32 32 31 30
22 22 23 24 26 27 28 28 28 29 29 29 30 31 33 33 35 35 36 36 36 36 36 36 36 34 33 32 32 32 31 31 31 31 31 31 30 31 31 31 31 31 31
22 24 24 26 26 28 29 28 29 28 27 29 30 30 32 33 33 33 34 34 34 34 34 35 35 34 33 32 32 32 32 31 31 31 31 31 30 29 29 30 30 31 31
22 24 26 26 28 29 29 29 29 30 29 28 30 30 31 32 33 33 34 34 34 36 35 36 35 35 34 34 34 33 34 33 33 33 33 32 31 30 29 29 30 30 31
23 25 25 26 27 29 30 30 31 31 31 32 32 31 31 32 34 34 34 36 37 37 37 36 36 36 36 36 36 35 35 35 34 34 34 33 32 31 31 31 31 31 31
25 26 27 27 28 30 32 33 33 34 34 34 34 33 34 34 36 36 36 36 36 36 37 38 38 38 37 37 37 36 37 37 37 36 35 34 34 34 34 33 33 33 33
27 28 29 29 30 31 33 34 34 34 34 34 34 34 35 35 36 36 36 37 37 37 39 39 39 39 38 39 40 40 39 38 37 37 37 36 37 36 36 36 36 36 35
29 29 30 31 31 32 33 34 34 34 35 35 35 35 35 35 36 36 37 39 40 39 39 40 40 40 41 41 41 41 40 39 39 39 39 39 39 39 39 39 39 39 38
31 31 30 31 32 33 35 35 35 35 36 36 36 35 35 36 36 37 38 39 39 39 40 41 40 41 41 42 42 41 42 42 42 41 41 41 42 42 41 42 42 41 41
32 32 32 33 34 34 35 36 35 36 36 37 36 36 36 37 37 38 38 40 40 41 42 42 42 42 42 43 43 43 43 43 43 43 43 43 44 43 43 43 43 43 43
34 35 35 35 35 35 36 36 36 36 37 37 37 37 37 37 38 39 40 41 41 42 43 44 44 44 44 44 45 45 44 45 45 45 45 45 45 45 44 44 44 44 44
37 37 37 36 36 37 37 38 37 37 38 39 39 40 41 40 40 40 41 42 42 43 44 45 45 46 46 46 46 46 46 46 47 47 47 47 47 46 46 46 46 46 46
38 38 38 38 38 38 39 39 39 39 39 40 40 41 42 43 43 43 43 43 44 44 45 45 46 47 47 47 47 47 48 47 48 48 48 47 48 47 47 47 46 46 47
40 39 39 39 40 40 40 41 41 40 41 41 42 42 42 43 43 44 44 44 44 45 46 45 46 46 47 47 48 48 49 49 49 49 48 48 48 49 48 48 48 48 48
41 42 42 42 42 42 42 43 43 43 43 43 44 44 44 44 45 44 45 45 44 45 46 45 45 46 47 48 48 48 49 49 50 49 49 50 50 50 50 50 50 51 50
44 44 44 44 45 45 45 45 45 46 45 45 45 46 46 46 46 46 46 45 45 46 46 47 47 47 47 48 49 49 50 50 51 51 52 51 52 52 52 53 53 53 53
46 46 45 46 46 47 47 47 47 47 47 47 47 47 47 47 47 48 48 47 47 47 48 48 49 49 49 49 49 49 50 51 51 52 52 53 53 53 54 54 54 54 54
46 46 46 47 47 47 47 48 48 48 48 48 48 48 48 49 49 49 50 50 50 50 50 51 51 51 51 51 51 51 52 52 52 53 53 53 54 54 54 54 54 53 53
46 46 46 47 47 47 47 48 48 48 48 49 49 49 50 50 51 51 51 52 52 52 52 52 53 53 53 53 53 53 53 53 53 53 53 53 54 54 54 54 54 53 53
47 47 47 47 47 47 48 48 48 48 49 50 50 50 50 51 51 52 53 54 54 54 54 54 54 54 54 54 54 54 55 56 55 54 54 54 55 55 55 55 55 55 54
47 47 48 48 47 48 48 48 47 48 49 49 50 50 51 51 52 53 54 55 56 56 56 56 56 56 55 55 55 55 56 56 56 56 55 56 56 56 56 56 56 55 55
47 47 48 48 48 48 48 48 48 49 49 50 51 51 52 52 53 54 55 56 56 57 57 57 57 56 56 56 56 56 56 56 56 56 56 57 57 56 56 56 56 55 55
48 48 49 49 49 48 48 49 49 49 50 50 50 51 52 53 54 55 56 57 57 57 57 57 57 57 56 56 56 56 56 56 56 56 56 56 56 55 55 54 54 53 52
48 48 49 49 48 48 48 48 48 49 49 49 50 50 51 53 53 54 54 55 55 55 55 55 55 55 55 54 55 56 56 56 56 56 55 55 54 53 53 52 51 50 50
48 48 48 47 47 46 46 46 47 47 48 48 49 50 50 51 52 52 51 52 52 52 53 53 54 54 55 55 55 55 55 55 55 55 54 53 52 51 50 49 48 48 47
Wind_Direction
239 238 234 235 238 237 239 238 241 241 243 245 246 245 243 242 241 244 247 248 248 248 248 250 251 252 256 258 259 261 264 266 268 271 274 275 276 276 275 275 275 276 274
241 243 240 241 242 241 241 241 241 242 246 247 248 248 246 245 244 246 248 248 248 248 248 248 250 252 255 257 260 262 265 267 269 271 274 275 275 274 275 274 275 275 276
245 245 244 246 245 243 243 244 244 243 246 248 248 247 247 248 247 248 248 247 248 247 247 249 250 250 254 257 259 262 265 267 268 271 274 275 276 275 274 274 274 274 274
250 250 251 251 250 249 247 247 246 246 250 249 249 248 246 249 248 248 249 249 248 246 246 247 249 250 254 256 260 263 265 268 269 271 274 275 276 275 274 274 275 275 275
254 253 255 252 252 252 250 250 249 250 253 254 254 251 248 248 246 249 251 249 248 248 248 249 251 252 255 258 260 262 264 267 269 271 273 275 274 274 274 274 274 275 276
260 258 258 256 257 255 254 254 254 255 257 257 256 254 252 250 248 250 252 251 250 251 249 250 251 254 258 261 261 262 264 266 268 270 271 272 273 274 274 274 275 276 277
265 262 261 260 259 258 257 257 257 257 258 258 258 257 256 254 253 254 255 255 254 253 251 252 253 256 260 262 261 262 264 265 267 269 271 272 273 274 274 275 276 276 277
267 265 262 262 261 259 259 259 260 261 259 258 258 257 255 254 254 255 255 255 255 255 254 253 254 257 260 262 262 263 264 265 267 269 271 272 273 273 273 275 276 277 278
269 268 266 263 261 260 260 261 262 261 259 258 257 257 255 255 254 254 254 254 255 256 256 254 256 259 260 262 262 262 262 264 266 268 270 270 272 271 273 275 277 278 278
269 268 266 263 262 261 260 261 262 261 260 259 257 256 256 257 257 257 257 257 258 258 258 257 257 260 261 260 261 262 263 264 266 267 269 270 271 272 273 275 277 278 278
269 268 267 266 264 263 262 261 261 260 258 258 257 257 256 258 260 259 259 258 258 259 259 259 260 261 262 261 261 263 264 265 266 267 269 270 272 273 274 275 276 277 277
269 268 268 268 267 265 264 263 261 259 258 258 258 258 257 258 259 260 259 258 258 259 260 261 261 261 261 261 261 263 264 266 267 268 269 270 271 272 273 274 275 276 277
271 271 270 269 269 267 265 264 263 261 261 260 260 259 260 260 261 261 260 259 259 260 261 260 261 262 262 262 262 263 265 267 267 268 269 271 272 272 273 274 275 275 276
270 270 270 269 269 269 267 265 263 261 261 262 261 261 262 262 263 264 264 263 262 262 262 262 262 263 264 263 264 265 266 267 269 269 270 271 271 272 273 273 274 275 275
269 269 269 268 268 269 268 265 264 263 261 262 262 263 263 263 264 265 265 265 264 264 264 265 265 265 265 265 266 267 267 267 269 269 270 270 271 271 272 273 273 274 275
269 269 270 270 269 269 269 267 266 265 263 262 262 263 263 263 264 264 265 265 265 265 265 266 266 267 268 268 268 269 268 268 269 270 270 270 271 272 273 273 274 274 275
269 269 269 269 270 269 269 268 267 266 265 264 264 263 263 263 264 264 265 265 266 267 267 267 268 269 269 269 269 269 268 268 269 270 270 270 271 272 273 274 274 275 275
270 269 269 268 269 269 269 269 268 267 266 265 265 265 265 264 264 264 264 265 266 266 268 269 270 270 270 270 270 270 270 270 270 270 271 271 271 272 273 274 275 275 275
270 271 270 269 269 269 269 269 267 267 266 266 265 265 265 264 264 264 265 265 265 267 268 269 269 270 270 270 271 271 271 271 271 271 271 271 272 273 273 274 274 274 274
272 272 272 271 270 269 268 268 267 267 266 266 266 266 265 265 264 264 264 265 265 267 268 269 269 270 270 271 271 271 271 272 271 271 272 272 272 272 273 273 274 274 274
273 273 273 272 272 271 270 269 268 268 267 266 266 266 266 266 266 265 265 266 266 267 268 269 269 270 270 271 271 271 272 272 272 272 272 272 272 272 273 273 274 274 273
273 272 272 272 272 271 271 270 269 268 268 267 267 267 267 267 267 267 266 267 268 268 269 269 269 269 270 271 271 271 272 272 272 273 273 274 274 274 274 274 274 273 273
272 272 271 271 271 271 270 269 268 268 267 268 267 267 268 268 268 268 268 269 269 269 269 269 269 270 270 271 271 271 271 272 272 273 273 273 274 274 274 274 273 273 273
272 273 273 272 272 271 270 269 268 268 267 267 268 269 269 269 269 269 269 269 269 270 270 270 270 270 270 270 270 270 270 271 271 272 273 273 274 274 274 273 272 272 272
273 273 272 272 271 270 269 268 268 268 268 269 269 270 270 270 270 270 270 270 270 270 270 270 270 270 270 270 270 271 271 271 271 272 273 273 274 274 273 272 271 271 271
274 273 272 272 271 270 269 268 268 269 270 271 271 272 272 272 272 272 272 271 270 270 270 270 271 271 271 271 271 271 272 272 272 272 273 273 273 272 271 270 269 270 270